"Pseudo-MPEC" for RdSH326

Created 2024 Apr 30 8:22:13 UT using Find_Orb

Click here for an explanation of pseudo-MPECs

 
 Astrometry: 
     RdSH326*KB2024 04 09EbAstrometry1*3u*e[Ri0redacted;Dq1lELclickgA$AtB2/J-Y89
     RdSH326 KB2024 04 10v;hereI.y6])![D)Y;:[.:aO[fJ/b\2R%/mforNqldTP?LeUE3JZY89
     RdSH326 KB2024 04 10udBKybubJ2explanation7d_F23q$QK.JwtB-?VWSQuOVN7,6bpyY89

Station data:
(Y89) Proxima Centauri Observatory, Valdin  (N42.222443 W6.988110)  Spain.

Orbital elements:  RdSH326
   Perihelion 2025 Jan 2.96829 +/- 509 TT = 23:14:20 (JD 2460678.46829)
Epoch 2024 Apr 10.0 TT = JDT 2460410.5   Earth MOID: 0.2187      AutoNEOCP
M 289.18910257 +/- 90               (J2000 ecliptic)
n   0.26425103 +/- 0.395            Peri.  338.58156 +/- 70
a   2.40505447 +/- 2.4              Node   332.82458 +/- 60
e   0.9024440 +/- 0.19              Incl.   25.36763 +/- 60
P   3.73                   H 14.51  G  0.15   U 12.2  SR
q 0.23462739 +/- 1.85    Q 4.57548156 +/- 43.1
From 3 observations 2024 Apr. 9-10 (42.1 min); mean residual 0".21
Residuals in arcseconds: 
240409 Y89  .10-  .18+    240410 Y89  .21+  .37-    240410 Y89  .11-  .18+    

Ephemerides (geocentric):
Date (UTC) HH   RA             Dec           delta  r     elong  mag " sig PA
---- --------  ------------   ------------  ------ ------ -----  --- --------
2024 04 30 08  08 55 23.953   +19 25 13.78  3.0821 3.2541  90.7 20.5 3459  84
2024 04 30 09  08 55 23.932   +19 25 07.87  3.0825 3.2538  90.7 20.5 3469  84
2024 04 30 10  08 55 23.913   +19 25 01.96  3.0829 3.2535  90.6 20.5 3479  84
2024 04 30 11  08 55 23.897   +19 24 56.05  3.0833 3.2532  90.6 20.5 3490  84
2024 04 30 12  08 55 23.882   +19 24 50.12  3.0837 3.2530  90.5 20.5 3500  84
2024 04 30 13  08 55 23.870   +19 24 44.19  3.0841 3.2527  90.5 20.5 3510  84
2024 04 30 14  08 55 23.860   +19 24 38.25  3.0845 3.2524  90.5 20.5 3520  84
2024 04 30 15  08 55 23.853   +19 24 32.30  3.0849 3.2521  90.4 20.5 3530  84
2024 04 30 16  08 55 23.847   +19 24 26.35  3.0853 3.2518  90.4 20.5 3541  84
2024 04 30 17  08 55 23.844   +19 24 20.39  3.0857 3.2515  90.3 20.5 3551  84
2024 04 30 18  08 55 23.843   +19 24 14.42  3.0861 3.2513  90.3 20.5 3561  84
2024 04 30 19  08 55 23.845   +19 24 08.44  3.0865 3.2510  90.3 20.5 3571  84
2024 04 30 20  08 55 23.848   +19 24 02.46  3.0869 3.2507  90.2 20.5 3582  84
2024 04 30 21  08 55 23.854   +19 23 56.46  3.0873 3.2504  90.2 20.5 3592  84
2024 04 30 22  08 55 23.862   +19 23 50.46  3.0877 3.2501  90.1 20.5 3602  84
2024 04 30 23  08 55 23.872   +19 23 44.46  3.0881 3.2498  90.1 20.5 3613  84
2024 05 01 00  08 55 23.885   +19 23 38.44  3.0885 3.2495  90.1 20.5 3623  84
2024 05 01 01  08 55 23.900   +19 23 32.42  3.0889 3.2493  90.0 20.5 3633  84
2024 05 01 02  08 55 23.916   +19 23 26.39  3.0893 3.2490  90.0 20.5 3644  84
2024 05 01 03  08 55 23.936   +19 23 20.36  3.0897 3.2487  89.9 20.5 3654  84
2024 05 01 04  08 55 23.957   +19 23 14.31  3.0901 3.2484  89.9 20.5 3664  84
2024 05 01 05  08 55 23.980   +19 23 08.26  3.0905 3.2481  89.9 20.5 3675  84
2024 05 01 06  08 55 24.006   +19 23 02.20  3.0909 3.2478  89.8 20.5 3685  84
2024 05 01 07  08 55 24.034   +19 22 56.13  3.0913 3.2476  89.8 20.5 3695  84
2024 05 01 08  08 55 24.064   +19 22 50.06  3.0917 3.2473  89.7 20.5 3706  84
2024 05 01 09  08 55 24.097   +19 22 43.98  3.0921 3.2470  89.7 20.5 3716  84
2024 05 01 10  08 55 24.132   +19 22 37.89  3.0925 3.2467  89.7 20.5 3727  84
2024 05 01 11  08 55 24.168   +19 22 31.79  3.0929 3.2464  89.6 20.5 3737  84
2024 05 01 12  08 55 24.207   +19 22 25.69  3.0933 3.2461  89.6 20.5 3747  84
2024 05 01 13  08 55 24.249   +19 22 19.58  3.0937 3.2458  89.5 20.5 3758  84
2024 05 01 14  08 55 24.292   +19 22 13.46  3.0941 3.2456  89.5 20.5 3768  84
2024 05 01 15  08 55 24.338   +19 22 07.33  3.0945 3.2453  89.5 20.5 3779  84
2024 05 01 16  08 55 24.386   +19 22 01.20  3.0949 3.2450  89.4 20.5 3789  84
2024 05 01 17  08 55 24.436   +19 21 55.06  3.0953 3.2447  89.4 20.5 3800  84
2024 05 01 18  08 55 24.488   +19 21 48.91  3.0957 3.2444  89.3 20.5 3810  84
2024 05 01 19  08 55 24.543   +19 21 42.75  3.0961 3.2441  89.3 20.5 3821  84
2024 05 01 20  08 55 24.600   +19 21 36.59  3.0965 3.2439  89.3 20.5 3831  84
2024 05 01 21  08 55 24.659   +19 21 30.42  3.0969 3.2436  89.2 20.5 3842  84
2024 05 01 22  08 55 24.720   +19 21 24.24  3.0973 3.2433  89.2 20.5 3852  84
2024 05 01 23  08 55 24.783   +19 21 18.06  3.0977 3.2430  89.1 20.5 3863  84
2024 05 02 00  08 55 24.849   +19 21 11.86  3.0981 3.2427  89.1 20.5 3873  84
2024 05 02 01  08 55 24.916   +19 21 05.66  3.0985 3.2424  89.1 20.5 3884  84
2024 05 02 02  08 55 24.986   +19 20 59.45  3.0989 3.2421  89.0 20.5 3894  84
2024 05 02 03  08 55 25.059   +19 20 53.24  3.0993 3.2419  89.0 20.5 3905  84
2024 05 02 04  08 55 25.133   +19 20 47.02  3.0997 3.2416  88.9 20.5 3915  84
2024 05 02 05  08 55 25.210   +19 20 40.79  3.1001 3.2413  88.9 20.5 3926  84
2024 05 02 06  08 55 25.288   +19 20 34.55  3.1005 3.2410  88.9 20.5 3937  84
2024 05 02 07  08 55 25.369   +19 20 28.31  3.1009 3.2407  88.8 20.5 3947  84